Time,TemperatureF,DewpointF,PressureIn,WindDirection,WindDirectionDegrees,WindSpeedMPH,WindSpeedGustMPH,Humidity,HourlyPrecipIn,Conditions,Clouds,dailyrainin,SoftwareType,DateUTC
2013-04-07 00:00:00,30.7,11.0,30.33,NNW,337,2.3,11.4,42,0.00,,,0.00,Rainwise IP-100,2013-04-07 04:00:00,
2013-04-07 00:04:00,30.7,11.0,30.35,WNW,292,3.3,7.7,43,0.00,,,0.00,Rainwise IP-100,2013-04-07 04:04:00,
2013-04-07 00:09:00,30.8,11.0,30.34,North,0,3.0,6.5,44,0.00,,,0.00,Rainwise IP-100,2013-04-07 04:09:00,
2013-04-07 00:14:00,30.8,14.0,30.33,NW,315,5.6,8.6,45,0.00,,,0.00,Rainwise IP-100,2013-04-07 04:14:00,
2013-04-07 00:19:00,30.7,14.0,30.33,NW,315,7.2,12.4,47,0.00,,,0.00,Rainwise IP-100,2013-04-07 04:19:00,
2013-04-07 00:24:00,30.7,14.0,30.35,WNW,292,2.6,9.3,46,0.00,,,0.00,Rainwise IP-100,2013-04-07 04:24:00,
2013-04-07 00:29:00,30.5,11.0,30.34,NW,315,4.9,7.5,43,0.00,,,0.00,Rainwise IP-100,2013-04-07 04:29:00,
2013-04-07 00:34:00,30.2,11.0,30.33,NW,315,6.5,8.6,41,0.00,,,0.00,Rainwise IP-100,2013-04-07 04:34:00,
2013-04-07 00:39:00,30.1,11.0,30.34,NW,315,3.5,8.9,42,0.00,,,0.00,Rainwise IP-100,2013-04-07 04:39:00,
2013-04-07 00:44:00,30.1,11.0,30.34,West,270,4.4,6.8,42,0.00,,,0.00,Rainwise IP-100,2013-04-07 04:44:00,
2013-04-07 00:49:00,30.0,11.0,30.34,NW,315,6.8,6.8,41,0.00,,,0.00,Rainwise IP-100,2013-04-07 04:49:00,
2013-04-07 00:54:00,30.0,11.0,30.34,NW,315,4.0,7.2,40,0.00,,,0.00,Rainwise IP-100,2013-04-07 04:54:00,
2013-04-07 00:59:00,29.8,11.0,30.35,NW,315,4.0,6.5,41,0.00,,,0.00,Rainwise IP-100,2013-04-07 04:59:00,
2013-04-07 01:04:00,29.7,11.0,30.35,NW,315,4.9,6.1,41,0.00,,,0.00,Rainwise IP-100,2013-04-07 05:04:00,
2013-04-07 01:09:00,29.8,11.0,30.35,NW,315,4.4,6.5,41,0.00,,,0.00,Rainwise IP-100,2013-04-07 05:09:00,
2013-04-07 01:14:00,29.8,11.0,30.35,West,270,4.7,6.5,41,0.00,,,0.00,Rainwise IP-100,2013-04-07 05:14:00,
2013-04-07 01:19:00,29.8,11.0,30.35,NW,315,4.2,5.4,40,0.00,,,0.00,Rainwise IP-100,2013-04-07 05:19:00,
2013-04-07 01:24:00,29.8,11.0,30.35,NW,315,3.0,4.9,40,0.00,,,0.00,Rainwise IP-100,2013-04-07 05:24:00,
2013-04-07 01:29:00,29.8,11.0,30.35,WNW,292,3.5,4.4,39,0.00,,,0.00,Rainwise IP-100,2013-04-07 05:29:00,
2013-04-07 01:34:00,29.7,11.0,30.35,WNW,292,4.7,4.7,39,0.00,,,0.00,Rainwise IP-100,2013-04-07 05:34:00,
2013-04-07 01:39:00,29.6,11.0,30.36,West,270,3.3,4.9,40,0.00,,,0.00,Rainwise IP-100,2013-04-07 05:39:00,
2013-04-07 01:44:00,29.6,11.0,30.35,West,270,2.6,4.7,39,0.00,,,0.00,Rainwise IP-100,2013-04-07 05:44:00,
2013-04-07 01:49:00,29.6,11.0,30.35,West,270,4.7,5.8,39,0.00,,,0.00,Rainwise IP-100,2013-04-07 05:49:00,
2013-04-07 01:54:00,29.5,11.0,30.35,West,270,3.5,5.6,40,0.00,,,0.00,Rainwise IP-100,2013-04-07 05:54:00,
2013-04-07 01:59:00,29.5,11.0,30.34,West,270,3.0,4.7,40,0.00,,,0.00,Rainwise IP-100,2013-04-07 05:59:00,
2013-04-07 02:04:00,29.3,8.0,30.34,WNW,292,3.7,4.7,40,0.00,,,0.00,Rainwise IP-100,2013-04-07 06:04:00,
2013-04-07 02:09:00,29.3,8.0,30.35,West,270,4.0,4.9,39,0.00,,,0.00,Rainwise IP-100,2013-04-07 06:09:00,
2013-04-07 02:14:00,29.4,8.0,30.34,NW,315,4.2,5.6,39,0.00,,,0.00,Rainwise IP-100,2013-04-07 06:14:00,
2013-04-07 02:19:00,29.3,8.0,30.35,West,270,3.7,6.1,40,0.00,,,0.00,Rainwise IP-100,2013-04-07 06:19:00,
2013-04-07 02:24:00,29.1,8.0,30.36,WSW,247,3.5,4.4,40,0.00,,,0.00,Rainwise IP-100,2013-04-07 06:24:00,
2013-04-07 02:29:00,29.1,8.0,30.34,NW,315,3.7,5.6,40,0.00,,,0.00,Rainwise IP-100,2013-04-07 06:29:00,
2013-04-07 02:34:00,29.0,11.0,30.34,West,270,0.0,4.9,41,0.00,,,0.00,Rainwise IP-100,2013-04-07 06:34:00,
2013-04-07 02:39:00,28.8,11.0,30.35,SW,225,1.6,3.0,41,0.00,,,0.00,Rainwise IP-100,2013-04-07 06:39:00,
2013-04-07 02:44:00,28.6,11.0,30.34,WSW,247,2.3,2.8,41,0.00,,,0.00,Rainwise IP-100,2013-04-07 06:44:00,
2013-04-07 02:49:00,28.6,11.0,30.34,West,270,2.1,4.0,41,0.00,,,0.00,Rainwise IP-100,2013-04-07 06:49:00,
2013-04-07 02:54:00,28.4,8.0,30.34,WSW,247,1.4,3.3,42,0.00,,,0.00,Rainwise IP-100,2013-04-07 06:54:00,
2013-04-07 02:59:00,28.2,8.0,30.34,WNW,292,3.0,3.0,43,0.00,,,0.00,Rainwise IP-100,2013-04-07 06:59:00,
2013-04-07 03:04:00,28.2,8.0,30.34,WNW,292,1.2,3.3,43,0.00,,,0.00,Rainwise IP-100,2013-04-07 07:04:00,
2013-04-07 03:09:00,28.2,8.0,30.34,WNW,292,0.0,2.1,43,0.00,,,0.00,Rainwise IP-100,2013-04-07 07:09:00,
2013-04-07 03:14:00,27.9,11.0,30.33,WNW,292,2.3,2.6,44,0.00,,,0.00,Rainwise IP-100,2013-04-07 07:14:00,
2013-04-07 03:19:00,27.8,11.0,30.33,SW,225,3.0,3.5,44,0.00,,,0.00,Rainwise IP-100,2013-04-07 07:19:00,
2013-04-07 03:24:00,27.6,11.0,30.34,SW,225,3.3,4.7,44,0.00,,,0.00,Rainwise IP-100,2013-04-07 07:24:00,
2013-04-07 03:29:00,27.4,11.0,30.34,SW,225,4.2,4.9,45,0.00,,,0.00,Rainwise IP-100,2013-04-07 07:29:00,
2013-04-07 03:34:00,27.3,11.0,30.33,WSW,247,4.2,4.7,44,0.00,,,0.00,Rainwise IP-100,2013-04-07 07:34:00,
2013-04-07 03:40:00,27.3,11.0,30.34,SW,225,2.6,4.2,44,0.00,,,0.00,Rainwise IP-100,2013-04-07 07:40:00,
2013-04-07 03:45:00,27.4,11.0,30.33,SW,225,1.9,4.0,44,0.00,,,0.00,Rainwise IP-100,2013-04-07 07:45:00,
2013-04-07 03:50:00,27.5,11.0,30.33,SW,225,3.0,3.7,44,0.00,,,0.00,Rainwise IP-100,2013-04-07 07:50:00,
2013-04-07 03:55:00,27.4,11.0,30.33,SW,225,3.7,4.0,44,0.00,,,0.00,Rainwise IP-100,2013-04-07 07:55:00,
2013-04-07 04:00:00,27.2,11.0,30.33,SW,225,2.8,4.4,45,0.00,,,0.00,Rainwise IP-100,2013-04-07 08:00:00,
2013-04-07 04:05:00,27.2,11.0,30.33,SW,225,3.3,4.0,45,0.00,,,0.00,Rainwise IP-100,2013-04-07 08:05:00,
2013-04-07 04:10:00,27.2,11.0,30.33,WSW,247,0.0,3.5,46,0.00,,,0.00,Rainwise IP-100,2013-04-07 08:10:00,
2013-04-07 04:15:00,27.0,11.0,30.32,WSW,247,0.0,0.0,48,0.00,,,0.00,Rainwise IP-100,2013-04-07 08:15:00,
2013-04-07 04:20:00,26.7,14.0,30.33,WSW,247,0.0,1.2,50,0.00,,,0.00,Rainwise IP-100,2013-04-07 08:20:00,
2013-04-07 04:25:00,26.6,14.0,30.32,WSW,247,0.0,0.0,52,0.00,,,0.00,Rainwise IP-100,2013-04-07 08:25:00,
2013-04-07 04:30:00,26.7,14.0,30.32,WSW,247,1.4,1.6,53,0.00,,,0.00,Rainwise IP-100,2013-04-07 08:30:00,
2013-04-07 04:35:00,26.7,14.0,30.32,WSW,247,0.0,2.6,51,0.00,,,0.00,Rainwise IP-100,2013-04-07 08:35:00,
2013-04-07 04:40:00,26.7,14.0,30.32,SW,225,3.5,4.2,50,0.00,,,0.00,Rainwise IP-100,2013-04-07 08:40:00,
2013-04-07 04:45:00,26.9,11.0,30.32,SW,225,1.6,4.2,49,0.00,,,0.00,Rainwise IP-100,2013-04-07 08:45:00,
2013-04-07 04:50:00,27.2,11.0,30.32,SW,225,4.0,4.4,48,0.00,,,0.00,Rainwise IP-100,2013-04-07 08:50:00,
2013-04-07 04:55:00,27.3,11.0,30.32,SSW,202,2.3,5.8,47,0.00,,,0.00,Rainwise IP-100,2013-04-07 08:55:00,
2013-04-07 05:00:00,27.3,11.0,30.32,SSW,202,2.8,3.3,47,0.00,,,0.00,Rainwise IP-100,2013-04-07 09:00:00,
2013-04-07 05:05:00,27.2,11.0,30.32,SSW,202,2.8,4.7,48,0.00,,,0.00,Rainwise IP-100,2013-04-07 09:05:00,
2013-04-07 05:10:00,27.2,11.0,30.32,SW,225,1.9,3.3,48,0.00,,,0.00,Rainwise IP-100,2013-04-07 09:10:00,
2013-04-07 05:15:00,27.1,11.0,30.32,SW,225,4.2,4.9,48,0.00,,,0.00,Rainwise IP-100,2013-04-07 09:15:00,
2013-04-07 05:20:00,27.2,11.0,30.32,SW,225,3.0,4.9,49,0.00,,,0.00,Rainwise IP-100,2013-04-07 09:20:00,
2013-04-07 05:25:00,27.2,11.0,30.32,SW,225,3.0,3.5,49,0.00,,,0.00,Rainwise IP-100,2013-04-07 09:25:00,
2013-04-07 05:30:00,27.3,11.0,30.33,SW,225,2.6,4.7,49,0.00,,,0.00,Rainwise IP-100,2013-04-07 09:30:00,
2013-04-07 05:35:00,27.4,11.0,30.33,SW,225,3.0,4.4,48,0.00,,,0.00,Rainwise IP-100,2013-04-07 09:35:00,
2013-04-07 05:40:00,27.5,11.0,30.33,SW,225,3.3,5.6,48,0.00,,,0.00,Rainwise IP-100,2013-04-07 09:40:00,
2013-04-07 05:45:00,27.4,11.0,30.33,SSW,202,3.3,4.9,48,0.00,,,0.00,Rainwise IP-100,2013-04-07 09:45:00,
2013-04-07 05:50:00,27.5,11.0,30.33,SSW,202,3.7,4.2,48,0.00,,,0.00,Rainwise IP-100,2013-04-07 09:50:00,
2013-04-07 05:55:00,27.7,11.0,30.33,SSW,202,3.0,4.2,48,0.00,,,0.00,Rainwise IP-100,2013-04-07 09:55:00,
2013-04-07 06:00:00,28.1,11.0,30.33,South,180,3.3,4.2,47,0.00,,,0.00,Rainwise IP-100,2013-04-07 10:00:00,
2013-04-07 06:05:00,28.4,11.0,30.33,SSW,202,3.5,4.2,46,0.00,,,0.00,Rainwise IP-100,2013-04-07 10:05:00,
2013-04-07 06:10:00,28.3,11.0,30.33,South,180,4.0,4.2,47,0.00,,,0.00,Rainwise IP-100,2013-04-07 10:10:00,
2013-04-07 06:15:00,28.2,11.0,30.33,South,180,3.0,4.2,48,0.00,,,0.00,Rainwise IP-100,2013-04-07 10:15:00,
2013-04-07 06:20:00,28.3,11.0,30.33,South,180,3.0,3.5,48,0.00,,,0.00,Rainwise IP-100,2013-04-07 10:20:00,
2013-04-07 06:25:00,28.5,14.0,30.33,South,180,2.1,3.7,48,0.00,,,0.00,Rainwise IP-100,2013-04-07 10:25:00,
2013-04-07 06:30:00,28.8,14.0,30.34,South,180,1.6,3.0,47,0.00,,,0.00,Rainwise IP-100,2013-04-07 10:30:00,
2013-04-07 06:35:00,29.2,14.0,30.34,South,180,2.6,5.1,47,0.00,,,0.00,Rainwise IP-100,2013-04-07 10:35:00,
2013-04-07 06:40:00,29.7,14.0,30.34,South,180,4.2,4.9,46,0.00,,,0.00,Rainwise IP-100,2013-04-07 10:40:00,
2013-04-07 06:45:00,30.2,14.0,30.34,South,180,1.4,5.1,45,0.00,,,0.00,Rainwise IP-100,2013-04-07 10:45:00,
2013-04-07 06:50:00,30.7,11.0,30.34,South,180,2.1,4.9,44,0.00,,,0.00,Rainwise IP-100,2013-04-07 10:50:00,
2013-04-07 06:55:00,31.3,11.0,30.35,South,180,3.3,4.4,44,0.00,,,0.00,Rainwise IP-100,2013-04-07 10:55:00,
2013-04-07 07:00:00,31.8,14.0,30.34,SE,135,2.1,5.6,44,0.00,,,0.00,Rainwise IP-100,2013-04-07 11:00:00,
2013-04-07 07:05:00,32.2,14.0,30.34,SSE,157,4.9,5.6,44,0.00,,,0.00,Rainwise IP-100,2013-04-07 11:05:00,
2013-04-07 07:10:00,32.5,16.0,30.35,SSE,157,4.2,6.8,45,0.00,,,0.00,Rainwise IP-100,2013-04-07 11:10:00,
2013-04-07 07:15:00,32.8,16.0,30.34,SSE,157,3.3,8.6,47,0.00,,,0.00,Rainwise IP-100,2013-04-07 11:15:00,
2013-04-07 07:20:00,33.0,16.0,30.34,ESE,112,5.6,11.0,48,0.00,,,0.00,Rainwise IP-100,2013-04-07 11:20:00,
2013-04-07 07:25:00,33.2,18.0,30.35,SE,135,6.1,8.4,50,0.00,,,0.00,Rainwise IP-100,2013-04-07 11:25:00,
2013-04-07 07:30:00,33.3,18.0,30.35,SE,135,8.6,10.7,51,0.00,,,0.00,Rainwise IP-100,2013-04-07 11:30:00,
2013-04-07 07:35:00,33.3,18.0,30.35,SE,135,8.4,13.5,52,0.00,,,0.00,Rainwise IP-100,2013-04-07 11:35:00,
2013-04-07 07:40:00,33.5,18.0,30.34,SE,135,8.9,12.8,50,0.00,,,0.00,Rainwise IP-100,2013-04-07 11:40:00,
2013-04-07 07:45:00,33.8,16.0,30.34,SE,135,7.0,15.2,47,0.00,,,0.00,Rainwise IP-100,2013-04-07 11:45:00,
2013-04-07 07:50:00,34.0,16.0,30.35,SE,135,5.8,13.1,45,0.00,,,0.00,Rainwise IP-100,2013-04-07 11:50:00,
2013-04-07 07:55:00,34.2,16.0,30.34,SE,135,7.2,10.7,44,0.00,,,0.00,Rainwise IP-100,2013-04-07 11:55:00,
2013-04-07 08:00:00,34.1,16.0,30.35,SSW,202,7.2,12.4,45,0.00,,,0.00,Rainwise IP-100,2013-04-07 12:00:00,
2013-04-07 08:05:00,34.1,16.0,30.35,SE,135,6.1,14.2,46,0.00,,,0.00,Rainwise IP-100,2013-04-07 12:05:00,
2013-04-07 08:10:00,34.2,16.0,30.35,South,180,3.3,11.4,46,0.00,,,0.00,Rainwise IP-100,2013-04-07 12:10:00,
2013-04-07 08:15:00,34.2,16.0,30.35,SSE,157,6.8,12.1,46,0.00,,,0.00,Rainwise IP-100,2013-04-07 12:15:00,
2013-04-07 08:20:00,34.3,16.0,30.35,SE,135,7.9,12.1,46,0.00,,,0.00,Rainwise IP-100,2013-04-07 12:20:00,
2013-04-07 08:25:00,34.2,16.0,30.35,SE,135,3.5,14.2,45,0.00,,,0.00,Rainwise IP-100,2013-04-07 12:25:00,
2013-04-07 08:30:00,34.0,16.0,30.35,SE,135,8.9,14.2,45,0.00,,,0.00,Rainwise IP-100,2013-04-07 12:30:00,
2013-04-07 08:35:00,33.9,16.0,30.34,ESE,112,5.8,10.0,45,0.00,,,0.00,Rainwise IP-100,2013-04-07 12:35:00,
2013-04-07 08:40:00,33.9,16.0,30.34,South,180,5.8,11.7,46,0.00,,,0.00,Rainwise IP-100,2013-04-07 12:40:00,
2013-04-07 08:45:00,33.9,16.0,30.35,South,180,5.6,10.3,46,0.00,,,0.00,Rainwise IP-100,2013-04-07 12:45:00,
2013-04-07 08:50:00,34.0,16.0,30.35,South,180,3.0,9.8,46,0.00,,,0.00,Rainwise IP-100,2013-04-07 12:50:00,
2013-04-07 08:55:00,34.1,16.0,30.35,SE,135,4.2,8.9,46,0.00,,,0.00,Rainwise IP-100,2013-04-07 12:55:00,
2013-04-07 09:00:00,34.2,16.0,30.35,South,180,3.5,7.9,47,0.00,,,0.00,Rainwise IP-100,2013-04-07 13:00:00,
2013-04-07 09:05:00,34.3,16.0,30.35,SE,135,7.2,11.0,47,0.00,,,0.00,Rainwise IP-100,2013-04-07 13:05:00,
2013-04-07 09:10:00,34.3,16.0,30.36,SE,135,5.1,8.9,47,0.00,,,0.00,Rainwise IP-100,2013-04-07 13:10:00,
2013-04-07 09:15:00,34.5,16.0,30.35,SE,135,6.3,7.0,47,0.00,,,0.00,Rainwise IP-100,2013-04-07 13:15:00,
2013-04-07 09:20:00,34.7,16.0,30.35,SSW,202,9.1,9.1,47,0.00,,,0.00,Rainwise IP-100,2013-04-07 13:20:00,
2013-04-07 09:25:00,34.7,16.0,30.35,SW,225,4.7,12.4,47,0.00,,,0.00,Rainwise IP-100,2013-04-07 13:25:00,
2013-04-07 09:30:00,34.8,16.0,30.35,SW,225,6.3,7.2,47,0.00,,,0.00,Rainwise IP-100,2013-04-07 13:30:00,
2013-04-07 09:35:00,34.8,16.0,30.35,SE,135,5.1,8.6,46,0.00,,,0.00,Rainwise IP-100,2013-04-07 13:35:00,
2013-04-07 09:40:00,34.9,16.0,30.35,SSW,202,8.4,9.1,46,0.00,,,0.00,Rainwise IP-100,2013-04-07 13:40:00,
2013-04-07 09:45:00,34.9,16.0,30.35,SSE,157,3.7,12.1,47,0.00,,,0.00,Rainwise IP-100,2013-04-07 13:45:00,
2013-04-07 09:50:00,35.1,16.0,30.35,SSE,157,6.8,6.8,47,0.00,,,0.00,Rainwise IP-100,2013-04-07 13:50:00,
2013-04-07 09:55:00,35.4,16.0,30.35,South,180,0.0,9.1,47,0.00,,,0.00,Rainwise IP-100,2013-04-07 13:55:00,
2013-04-07 10:00:00,35.6,18.0,30.35,SW,225,7.0,8.4,47,0.00,,,0.00,Rainwise IP-100,2013-04-07 14:00:00,
2013-04-07 10:05:00,35.8,18.0,30.35,SW,225,2.6,10.0,47,0.00,,,0.00,Rainwise IP-100,2013-04-07 14:05:00,
2013-04-07 10:10:00,35.9,18.0,30.35,SSW,202,7.0,8.9,47,0.00,,,0.00,Rainwise IP-100,2013-04-07 14:10:00,
2013-04-07 10:15:00,35.9,18.0,30.34,SE,135,3.5,13.1,47,0.00,,,0.00,Rainwise IP-100,2013-04-07 14:15:00,
2013-04-07 10:20:00,36.0,18.0,30.34,South,180,12.1,12.1,48,0.00,,,0.00,Rainwise IP-100,2013-04-07 14:20:00,
2013-04-07 10:25:00,36.1,18.0,30.34,SSE,157,12.4,15.2,48,0.00,,,0.00,Rainwise IP-100,2013-04-07 14:25:00,
2013-04-07 10:30:00,36.2,18.0,30.34,South,180,11.2,13.8,49,0.00,,,0.00,Rainwise IP-100,2013-04-07 14:30:00,
2013-04-07 10:35:00,36.3,21.0,30.34,South,180,7.9,13.3,50,0.00,,,0.00,Rainwise IP-100,2013-04-07 14:35:00,
2013-04-07 10:40:00,36.5,21.0,30.33,South,180,5.1,14.2,50,0.00,,,0.00,Rainwise IP-100,2013-04-07 14:40:00,
2013-04-07 10:45:00,36.8,21.0,30.34,SSW,202,4.2,15.2,50,0.00,,,0.00,Rainwise IP-100,2013-04-07 14:45:00,
2013-04-07 10:50:00,37.0,21.0,30.33,SE,135,7.2,14.5,50,0.00,,,0.00,Rainwise IP-100,2013-04-07 14:50:00,
2013-04-07 10:55:00,37.1,21.0,30.33,South,180,9.1,14.9,50,0.00,,,0.00,Rainwise IP-100,2013-04-07 14:55:00,
2013-04-07 11:00:00,37.3,21.0,30.33,SSE,157,13.5,14.2,50,0.00,,,0.00,Rainwise IP-100,2013-04-07 15:00:00,
2013-04-07 11:05:00,37.5,23.0,30.33,South,180,7.7,20.3,50,0.00,,,0.00,Rainwise IP-100,2013-04-07 15:05:00,
2013-04-07 11:10:00,37.8,23.0,30.32,South,180,12.6,18.0,50,0.00,,,0.00,Rainwise IP-100,2013-04-07 15:10:00,
2013-04-07 11:15:00,37.9,23.0,30.32,SSE,157,6.3,16.3,50,0.00,,,0.00,Rainwise IP-100,2013-04-07 15:15:00,
2013-04-07 11:20:00,37.8,23.0,30.31,SW,225,11.0,17.0,51,0.00,,,0.00,Rainwise IP-100,2013-04-07 15:20:00,
2013-04-07 11:25:00,37.9,23.0,30.31,SW,225,8.6,18.4,52,0.00,,,0.00,Rainwise IP-100,2013-04-07 15:25:00,
2013-04-07 11:30:00,37.9,23.0,30.31,South,180,14.5,16.3,53,0.00,,,0.00,Rainwise IP-100,2013-04-07 15:30:00,
2013-04-07 11:36:00,38.3,23.0,30.31,WSW,247,7.5,14.7,52,0.00,,,0.00,Rainwise IP-100,2013-04-07 15:36:00,
2013-04-07 11:41:00,39.1,23.0,30.31,SSE,157,5.6,15.6,51,0.00,,,0.00,Rainwise IP-100,2013-04-07 15:41:00,
2013-04-07 11:46:00,39.6,24.0,30.30,SSW,202,14.0,14.0,50,0.00,,,0.00,Rainwise IP-100,2013-04-07 15:46:00,
2013-04-07 11:51:00,39.6,24.0,30.30,SW,225,5.8,22.6,50,0.00,,,0.00,Rainwise IP-100,2013-04-07 15:51:00,
2013-04-07 11:56:00,39.7,24.0,30.29,South,180,20.3,20.3,51,0.00,,,0.00,Rainwise IP-100,2013-04-07 15:56:00,
2013-04-07 12:01:00,40.0,24.0,30.29,South,180,14.5,21.9,51,0.00,,,0.00,Rainwise IP-100,2013-04-07 16:01:00,
2013-04-07 12:06:00,39.9,24.0,30.28,South,180,3.5,18.0,51,0.00,,,0.00,Rainwise IP-100,2013-04-07 16:06:00,
2013-04-07 12:11:00,40.1,24.0,30.28,SE,135,10.7,17.7,51,0.00,,,0.00,Rainwise IP-100,2013-04-07 16:11:00,
2013-04-07 12:16:00,40.4,24.0,30.28,SSW,202,4.9,15.4,51,0.00,,,0.00,Rainwise IP-100,2013-04-07 16:16:00,
2013-04-07 12:21:00,40.4,24.0,30.28,SE,135,6.1,17.3,52,0.00,,,0.00,Rainwise IP-100,2013-04-07 16:21:00,
2013-04-07 12:26:00,40.4,24.0,30.27,SSE,157,4.7,15.4,52,0.00,,,0.00,Rainwise IP-100,2013-04-07 16:26:00,
2013-04-07 12:31:00,40.4,24.0,30.27,SE,135,7.2,18.4,53,0.00,,,0.00,Rainwise IP-100,2013-04-07 16:31:00,
2013-04-07 12:36:00,40.3,24.0,30.26,SW,225,5.6,18.2,53,0.00,,,0.00,Rainwise IP-100,2013-04-07 16:36:00,
2013-04-07 12:41:00,40.3,26.0,30.26,South,180,12.1,16.1,54,0.00,,,0.00,Rainwise IP-100,2013-04-07 16:41:00,
2013-04-07 12:46:00,40.0,26.0,30.25,SE,135,13.3,19.6,54,0.00,,,0.00,Rainwise IP-100,2013-04-07 16:46:00,
2013-04-07 12:51:00,39.7,26.0,30.24,SE,135,9.1,23.1,55,0.00,,,0.00,Rainwise IP-100,2013-04-07 16:51:00,
2013-04-07 12:56:00,39.8,26.0,30.25,South,180,11.4,19.1,56,0.00,,,0.00,Rainwise IP-100,2013-04-07 16:56:00,
2013-04-07 13:01:00,39.9,26.0,30.25,SSE,157,12.1,23.6,56,0.00,,,0.00,Rainwise IP-100,2013-04-07 17:01:00,
2013-04-07 13:06:00,40.3,26.0,30.24,SSW,202,9.8,25.4,57,0.00,,,0.00,Rainwise IP-100,2013-04-07 17:06:00,
2013-04-07 13:11:00,40.6,28.0,30.25,SW,225,13.5,22.6,57,0.00,,,0.00,Rainwise IP-100,2013-04-07 17:11:00,
2013-04-07 13:16:00,40.6,28.0,30.24,SSW,202,13.8,18.7,57,0.00,,,0.00,Rainwise IP-100,2013-04-07 17:16:00,
2013-04-07 13:21:00,40.8,28.0,30.24,SSE,157,10.3,19.6,58,0.00,,,0.00,Rainwise IP-100,2013-04-07 17:21:00,
2013-04-07 13:26:00,41.2,28.0,30.23,South,180,12.1,18.2,58,0.00,,,0.00,Rainwise IP-100,2013-04-07 17:26:00,
2013-04-07 13:31:00,41.5,28.0,30.23,SSW,202,14.7,15.2,57,0.00,,,0.00,Rainwise IP-100,2013-04-07 17:31:00,
2013-04-07 13:36:00,41.6,29.0,30.22,South,180,11.7,17.5,58,0.00,,,0.00,Rainwise IP-100,2013-04-07 17:36:00,
2013-04-07 13:41:00,41.1,28.0,30.23,SSW,202,11.0,14.7,59,0.00,,,0.00,Rainwise IP-100,2013-04-07 17:41:00,
2013-04-07 13:46:00,40.8,29.0,30.23,SSW,202,6.5,15.4,60,0.00,,,0.00,Rainwise IP-100,2013-04-07 17:46:00,
2013-04-07 13:51:00,40.4,28.0,30.22,SSE,157,9.3,17.7,61,0.00,,,0.00,Rainwise IP-100,2013-04-07 17:51:00,
2013-04-07 13:56:00,40.1,29.0,30.23,SSE,157,8.2,17.3,62,0.00,,,0.00,Rainwise IP-100,2013-04-07 17:56:00,
2013-04-07 14:01:00,40.1,29.0,30.22,South,180,7.9,17.5,62,0.00,,,0.00,Rainwise IP-100,2013-04-07 18:01:00,
2013-04-07 14:06:00,40.1,29.0,30.22,South,180,19.4,19.8,62,0.00,,,0.00,Rainwise IP-100,2013-04-07 18:06:00,
2013-04-07 14:11:00,40.0,29.0,30.21,ESE,112,5.1,19.4,63,0.00,,,0.00,Rainwise IP-100,2013-04-07 18:11:00,
2013-04-07 14:16:00,40.0,29.0,30.22,SSW,202,8.9,17.3,64,0.00,,,0.00,Rainwise IP-100,2013-04-07 18:16:00,
2013-04-07 14:21:00,40.1,29.0,30.21,WSW,247,9.1,21.7,64,0.00,,,0.00,Rainwise IP-100,2013-04-07 18:21:00,
2013-04-07 14:26:00,40.1,29.0,30.21,South,180,7.0,16.8,64,0.00,,,0.00,Rainwise IP-100,2013-04-07 18:26:00,
2013-04-07 14:31:00,40.2,29.0,30.21,SSW,202,16.3,17.7,65,0.00,,,0.00,Rainwise IP-100,2013-04-07 18:31:00,
2013-04-07 14:36:00,40.2,29.0,30.21,SSW,202,13.3,22.2,65,0.00,,,0.00,Rainwise IP-100,2013-04-07 18:36:00,
2013-04-07 14:41:00,40.2,31.0,30.20,South,180,17.0,19.4,66,0.00,,,0.00,Rainwise IP-100,2013-04-07 18:41:00,
2013-04-07 14:46:00,40.2,31.0,30.19,SSW,202,14.9,18.0,67,0.00,,,0.00,Rainwise IP-100,2013-04-07 18:46:00,
2013-04-07 14:51:00,40.5,31.0,30.20,SW,225,6.3,18.2,67,0.00,,,0.00,Rainwise IP-100,2013-04-07 18:51:00,
2013-04-07 14:56:00,41.0,31.0,30.19,SSW,202,5.6,17.7,67,0.00,,,0.00,Rainwise IP-100,2013-04-07 18:56:00,
2013-04-07 15:01:00,41.3,31.0,30.19,SSW,202,5.1,19.6,66,0.00,,,0.00,Rainwise IP-100,2013-04-07 19:01:00,
2013-04-07 15:06:00,41.7,32.0,30.19,SE,135,12.1,15.4,66,0.00,,,0.00,Rainwise IP-100,2013-04-07 19:06:00,
2013-04-07 15:11:00,41.9,32.0,30.19,SSW,202,4.7,17.0,66,0.00,,,0.00,Rainwise IP-100,2013-04-07 19:11:00,
2013-04-07 15:16:00,41.9,32.0,30.18,SW,225,5.6,21.5,66,0.00,,,0.00,Rainwise IP-100,2013-04-07 19:16:00,
2013-04-07 15:21:00,41.8,32.0,30.18,SW,225,6.1,22.9,67,0.00,,,0.00,Rainwise IP-100,2013-04-07 19:21:00,
2013-04-07 15:26:00,41.8,32.0,30.17,South,180,8.9,24.9,67,0.00,,,0.00,Rainwise IP-100,2013-04-07 19:26:00,
2013-04-07 15:31:00,41.9,32.0,30.17,SSE,157,4.2,16.3,67,0.00,,,0.00,Rainwise IP-100,2013-04-07 19:31:00,
2013-04-07 15:36:00,41.7,32.0,30.16,SSW,202,6.5,18.9,68,0.00,,,0.00,Rainwise IP-100,2013-04-07 19:36:00,
2013-04-07 15:42:00,41.7,32.0,30.16,South,180,13.5,24.9,68,0.00,,,0.00,Rainwise IP-100,2013-04-07 19:42:00,
2013-04-07 15:47:00,41.8,32.0,30.16,SSW,202,10.0,24.9,68,0.00,,,0.00,Rainwise IP-100,2013-04-07 19:47:00,
2013-04-07 15:52:00,41.9,33.0,30.16,SSW,202,9.1,19.6,69,0.00,,,0.00,Rainwise IP-100,2013-04-07 19:52:00,
2013-04-07 15:57:00,41.7,33.0,30.16,SW,225,6.1,23.8,69,0.00,,,0.00,Rainwise IP-100,2013-04-07 19:57:00,
2013-04-07 16:02:00,41.5,33.0,30.15,South,180,10.5,21.0,70,0.00,,,0.00,Rainwise IP-100,2013-04-07 20:02:00,
2013-04-07 16:07:00,41.3,32.0,30.15,SW,225,8.6,19.8,70,0.00,,,0.00,Rainwise IP-100,2013-04-07 20:07:00,
2013-04-07 16:12:00,41.1,32.0,30.15,South,180,10.3,18.4,71,0.00,,,0.00,Rainwise IP-100,2013-04-07 20:12:00,
2013-04-07 16:17:00,41.0,33.0,30.14,SW,225,6.8,22.4,72,0.00,,,0.00,Rainwise IP-100,2013-04-07 20:17:00,
2013-04-07 16:22:00,40.9,33.0,30.14,SSW,202,11.0,17.0,72,0.00,,,0.00,Rainwise IP-100,2013-04-07 20:22:00,
2013-04-07 16:27:00,40.9,33.0,30.14,SSE,157,20.3,21.7,73,0.00,,,0.00,Rainwise IP-100,2013-04-07 20:27:00,
2013-04-07 16:32:00,40.6,33.0,30.13,South,180,16.1,22.2,73,0.00,,,0.00,Rainwise IP-100,2013-04-07 20:32:00,
2013-04-07 16:37:00,40.4,33.0,30.13,SSW,202,14.9,18.4,74,0.00,,,0.00,Rainwise IP-100,2013-04-07 20:37:00,
2013-04-07 16:42:00,40.4,33.0,30.13,WSW,247,13.8,24.5,75,0.00,,,0.00,Rainwise IP-100,2013-04-07 20:42:00,
2013-04-07 16:47:00,40.2,33.0,30.14,SW,225,8.4,17.0,76,0.00,,,0.00,Rainwise IP-100,2013-04-07 20:47:00,
2013-04-07 16:52:00,40.1,33.0,30.14,South,180,11.4,21.0,77,0.00,,,0.00,Rainwise IP-100,2013-04-07 20:52:00,
2013-04-07 16:57:00,40.1,33.0,30.12,SSW,202,13.1,17.5,77,0.00,,,0.00,Rainwise IP-100,2013-04-07 20:57:00,
2013-04-07 17:02:00,40.2,33.0,30.13,South,180,10.0,18.7,77,0.00,,,0.00,Rainwise IP-100,2013-04-07 21:02:00,
2013-04-07 17:07:00,40.3,33.0,30.13,SE,135,11.2,17.7,76,0.00,,,0.00,Rainwise IP-100,2013-04-07 21:07:00,
2013-04-07 17:12:00,40.4,33.0,30.13,South,180,14.2,18.9,76,0.00,,,0.00,Rainwise IP-100,2013-04-07 21:12:00,
2013-04-07 17:17:00,40.6,35.0,30.13,SSE,157,11.7,18.9,75,0.00,,,0.00,Rainwise IP-100,2013-04-07 21:17:00,
2013-04-07 17:22:00,40.7,35.0,30.12,SSW,202,14.0,22.4,75,0.00,,,0.00,Rainwise IP-100,2013-04-07 21:22:00,
2013-04-07 17:27:00,40.7,35.0,30.12,South,180,10.5,18.0,75,0.00,,,0.00,Rainwise IP-100,2013-04-07 21:27:00,
2013-04-07 17:32:00,40.8,35.0,30.12,SSW,202,12.6,20.8,75,0.00,,,0.00,Rainwise IP-100,2013-04-07 21:32:00,
2013-04-07 17:37:00,40.8,35.0,30.12,South,180,19.8,19.8,75,0.00,,,0.00,Rainwise IP-100,2013-04-07 21:37:00,
2013-04-07 17:42:00,40.7,35.0,30.12,South,180,9.1,20.3,75,0.00,,,0.00,Rainwise IP-100,2013-04-07 21:42:00,
2013-04-07 17:47:00,40.7,35.0,30.11,South,180,10.7,13.3,75,0.00,,,0.00,Rainwise IP-100,2013-04-07 21:47:00,
2013-04-07 17:52:00,40.8,35.0,30.11,South,180,9.1,16.8,76,0.00,,,0.00,Rainwise IP-100,2013-04-07 21:52:00,
2013-04-07 17:57:00,40.8,35.0,30.10,ESE,112,7.5,15.6,76,0.00,,,0.00,Rainwise IP-100,2013-04-07 21:57:00,
2013-04-07 18:02:00,40.6,35.0,30.08,SW,225,11.9,22.4,76,0.00,,,0.00,Rainwise IP-100,2013-04-07 22:02:00,
2013-04-07 18:07:00,40.5,35.0,30.08,SSW,202,13.8,20.8,76,0.00,,,0.00,Rainwise IP-100,2013-04-07 22:07:00,
2013-04-07 18:12:00,40.4,33.0,30.08,South,180,14.2,23.8,77,0.00,,,0.00,Rainwise IP-100,2013-04-07 22:12:00,
2013-04-07 18:17:00,40.4,33.0,30.08,South,180,17.0,19.4,77,0.00,,,0.00,Rainwise IP-100,2013-04-07 22:17:00,
2013-04-07 18:22:00,40.4,33.0,30.09,SSE,157,8.9,21.9,77,0.00,,,0.00,Rainwise IP-100,2013-04-07 22:22:00,
2013-04-07 18:27:00,40.3,33.0,30.09,SW,225,15.6,26.1,77,0.00,,,0.00,Rainwise IP-100,2013-04-07 22:27:00,
2013-04-07 18:32:00,40.3,33.0,30.08,SSE,157,3.5,18.2,77,0.00,,,0.00,Rainwise IP-100,2013-04-07 22:32:00,
2013-04-07 18:37:00,40.3,33.0,30.09,SSW,202,19.8,19.8,77,0.00,,,0.00,Rainwise IP-100,2013-04-07 22:37:00,
2013-04-07 18:42:00,40.3,35.0,30.09,SSW,202,2.6,19.8,78,0.00,,,0.00,Rainwise IP-100,2013-04-07 22:42:00,
2013-04-07 18:47:00,40.2,35.0,30.09,SW,225,12.4,18.2,78,0.00,,,0.00,Rainwise IP-100,2013-04-07 22:47:00,
2013-04-07 18:52:00,40.2,35.0,30.08,SSE,157,8.6,13.8,78,0.00,,,0.00,Rainwise IP-100,2013-04-07 22:52:00,
2013-04-07 18:57:00,40.1,35.0,30.09,SW,225,3.7,21.0,78,0.00,,,0.00,Rainwise IP-100,2013-04-07 22:57:00,
2013-04-07 19:02:00,40.1,35.0,30.09,South,180,10.7,15.9,78,0.00,,,0.00,Rainwise IP-100,2013-04-07 23:02:00,
2013-04-07 19:07:00,40.1,33.0,30.09,SSW,202,12.4,16.6,77,0.00,,,0.00,Rainwise IP-100,2013-04-07 23:07:00,
2013-04-07 19:12:00,40.1,33.0,30.08,West,270,12.6,18.7,77,0.00,,,0.00,Rainwise IP-100,2013-04-07 23:12:00,
2013-04-07 19:17:00,40.1,33.0,30.09,WSW,247,7.2,21.2,76,0.00,,,0.00,Rainwise IP-100,2013-04-07 23:17:00,
2013-04-07 19:22:00,40.1,33.0,30.09,SW,225,6.1,14.9,76,0.00,,,0.00,Rainwise IP-100,2013-04-07 23:22:00,
2013-04-07 19:27:00,40.1,33.0,30.08,South,180,2.3,12.8,76,0.00,,,0.00,Rainwise IP-100,2013-04-07 23:27:00,
2013-04-07 19:32:00,40.0,33.0,30.09,SE,135,5.1,14.7,76,0.00,,,0.00,Rainwise IP-100,2013-04-07 23:32:00,
2013-04-07 19:37:00,40.0,33.0,30.09,SW,225,14.9,14.9,75,0.00,,,0.00,Rainwise IP-100,2013-04-07 23:37:00,
2013-04-07 19:42:00,40.1,33.0,30.09,WSW,247,7.2,19.6,75,0.00,,,0.00,Rainwise IP-100,2013-04-07 23:42:00,
2013-04-07 19:47:00,40.1,33.0,30.10,WSW,247,4.7,14.0,75,0.00,,,0.00,Rainwise IP-100,2013-04-07 23:47:00,
2013-04-07 19:52:00,40.1,33.0,30.09,SE,135,7.2,18.7,76,0.00,,,0.00,Rainwise IP-100,2013-04-07 23:52:00,
2013-04-07 19:57:00,40.2,33.0,30.09,SE,135,7.2,18.4,76,0.00,,,0.00,Rainwise IP-100,2013-04-07 23:57:00,
2013-04-07 20:02:00,40.3,33.0,30.09,SW,225,6.3,19.8,76,0.00,,,0.00,Rainwise IP-100,2013-04-08 00:02:00,
2013-04-07 20:07:00,40.3,33.0,30.08,WSW,247,8.6,17.7,76,0.00,,,0.00,Rainwise IP-100,2013-04-08 00:07:00,
2013-04-07 20:12:00,40.4,33.0,30.09,SSE,157,2.1,23.3,76,0.00,,,0.00,Rainwise IP-100,2013-04-08 00:12:00,
2013-04-07 20:17:00,40.3,33.0,30.08,SW,225,11.7,16.3,76,0.00,,,0.00,Rainwise IP-100,2013-04-08 00:17:00,
2013-04-07 20:22:00,40.4,33.0,30.07,SW,225,6.1,21.2,76,0.00,,,0.00,Rainwise IP-100,2013-04-08 00:22:00,
2013-04-07 20:27:00,40.4,33.0,30.08,SW,225,12.8,18.4,76,0.00,,,0.00,Rainwise IP-100,2013-04-08 00:27:00,
2013-04-07 20:32:00,40.5,35.0,30.08,South,180,7.9,16.3,76,0.00,,,0.00,Rainwise IP-100,2013-04-08 00:32:00,
2013-04-07 20:37:00,40.5,35.0,30.08,SSW,202,10.7,19.1,76,0.00,,,0.00,Rainwise IP-100,2013-04-08 00:37:00,
2013-04-07 20:42:00,40.6,35.0,30.07,SSE,157,5.4,18.0,76,0.00,,,0.00,Rainwise IP-100,2013-04-08 00:42:00,
2013-04-07 20:47:00,40.6,35.0,30.07,SSE,157,5.4,17.0,77,0.00,,,0.00,Rainwise IP-100,2013-04-08 00:47:00,
2013-04-07 20:52:00,40.7,35.0,30.07,WSW,247,5.4,11.4,77,0.00,,,0.00,Rainwise IP-100,2013-04-08 00:52:00,
2013-04-07 20:57:00,40.8,35.0,30.07,South,180,8.6,27.0,77,0.00,,,0.00,Rainwise IP-100,2013-04-08 00:57:00,
2013-04-07 21:02:00,40.7,36.0,30.06,West,270,8.9,20.3,79,0.00,,,0.00,Rainwise IP-100,2013-04-08 01:02:00,
2013-04-07 21:07:00,40.6,36.0,30.06,SW,225,2.6,23.8,80,0.00,,,0.00,Rainwise IP-100,2013-04-08 01:07:00,
2013-04-07 21:12:00,40.6,36.0,30.06,SW,225,4.0,24.7,80,0.00,,,0.00,Rainwise IP-100,2013-04-08 01:12:00,
2013-04-07 21:17:00,40.7,36.0,30.06,SSW,202,11.0,24.0,81,0.00,,,0.00,Rainwise IP-100,2013-04-08 01:17:00,
2013-04-07 21:22:00,40.9,36.0,30.05,West,270,21.7,24.5,81,0.06,,,0.01,Rainwise IP-100,2013-04-08 01:22:00,
2013-04-07 21:27:00,41.0,36.0,30.05,SSW,202,10.3,24.0,81,0.06,,,0.01,Rainwise IP-100,2013-04-08 01:27:00,
2013-04-07 21:32:00,41.1,36.0,30.06,South,180,8.6,21.5,81,0.00,,,0.01,Rainwise IP-100,2013-04-08 01:32:00,
2013-04-07 21:37:00,41.3,36.0,30.05,SW,225,8.9,30.3,81,0.00,,,0.01,Rainwise IP-100,2013-04-08 01:37:00,
2013-04-07 21:42:00,41.4,36.0,30.04,SSW,202,14.9,28.4,81,0.18,,,0.04,Rainwise IP-100,2013-04-08 01:42:00,
2013-04-07 21:47:00,41.5,37.0,30.04,South,180,23.6,23.6,82,0.18,,,0.04,Rainwise IP-100,2013-04-08 01:47:00,
2013-04-07 21:53:00,41.5,37.0,30.04,SSW,202,13.8,26.8,82,0.00,,,0.04,Rainwise IP-100,2013-04-08 01:53:00,
2013-04-07 21:58:00,41.6,37.0,30.03,SSE,157,5.8,21.5,82,0.00,,,0.04,Rainwise IP-100,2013-04-08 01:58:00,
2013-04-07 22:03:00,41.7,37.0,30.03,SSW,202,18.2,26.6,82,0.00,,,0.04,Rainwise IP-100,2013-04-08 02:03:00,
2013-04-07 22:08:00,41.8,37.0,30.03,WSW,247,6.8,23.6,82,0.00,,,0.04,Rainwise IP-100,2013-04-08 02:08:00,
2013-04-07 22:13:00,41.9,37.0,30.03,South,180,13.3,23.6,82,0.00,,,0.04,Rainwise IP-100,2013-04-08 02:13:00,
2013-04-07 22:18:00,42.0,37.0,30.03,WSW,247,12.1,22.4,82,0.00,,,0.04,Rainwise IP-100,2013-04-08 02:18:00,
2013-04-07 22:23:00,42.1,37.0,30.02,SW,225,5.1,22.2,82,0.00,,,0.04,Rainwise IP-100,2013-04-08 02:23:00,
2013-04-07 22:28:00,42.1,37.0,30.00,West,270,11.0,25.2,82,0.00,,,0.04,Rainwise IP-100,2013-04-08 02:28:00,
2013-04-07 22:33:00,42.1,37.0,29.99,SW,225,5.8,21.2,82,0.00,,,0.04,Rainwise IP-100,2013-04-08 02:33:00,
2013-04-07 22:38:00,42.2,37.0,29.99,SW,225,15.2,24.9,82,0.00,,,0.04,Rainwise IP-100,2013-04-08 02:38:00,
2013-04-07 22:43:00,42.2,37.0,29.98,West,270,19.1,24.9,82,0.00,,,0.04,Rainwise IP-100,2013-04-08 02:43:00,
2013-04-07 22:48:00,42.2,37.0,29.98,SW,225,3.5,31.7,82,0.00,,,0.04,Rainwise IP-100,2013-04-08 02:48:00,
2013-04-07 22:53:00,42.3,37.0,29.97,SSW,202,12.6,29.1,82,0.00,,,0.04,Rainwise IP-100,2013-04-08 02:53:00,
2013-04-07 22:58:00,42.3,37.0,29.98,West,270,16.1,22.2,82,0.00,,,0.04,Rainwise IP-100,2013-04-08 02:58:00,
2013-04-07 23:03:00,42.3,37.0,29.98,SSE,157,4.4,27.5,82,0.00,,,0.04,Rainwise IP-100,2013-04-08 03:03:00,
2013-04-07 23:08:00,42.4,37.0,29.99,SW,225,9.6,23.1,82,0.00,,,0.04,Rainwise IP-100,2013-04-08 03:08:00,
2013-04-07 23:13:00,42.5,38.0,29.99,SSE,157,9.6,23.3,83,0.00,,,0.04,Rainwise IP-100,2013-04-08 03:13:00,
2013-04-07 23:18:00,42.5,38.0,30.00,SW,225,16.3,24.9,83,0.00,,,0.04,Rainwise IP-100,2013-04-08 03:18:00,
2013-04-07 23:23:00,42.5,38.0,29.98,East,90,2.8,21.7,83,0.00,,,0.04,Rainwise IP-100,2013-04-08 03:23:00,
2013-04-07 23:28:00,42.4,37.0,29.97,SW,225,12.1,22.6,83,0.00,,,0.04,Rainwise IP-100,2013-04-08 03:28:00,
2013-04-07 23:33:00,42.5,38.0,29.99,SW,225,3.5,20.1,83,0.00,,,0.04,Rainwise IP-100,2013-04-08 03:33:00,
2013-04-07 23:38:00,42.6,38.0,29.99,West,270,2.1,25.4,83,0.00,,,0.04,Rainwise IP-100,2013-04-08 03:38:00,
2013-04-07 23:43:00,42.7,38.0,29.99,WNW,292,8.4,25.2,83,0.00,,,0.04,Rainwise IP-100,2013-04-08 03:43:00,
2013-04-07 23:48:00,42.7,38.0,29.98,SW,225,4.4,23.6,83,0.00,,,0.04,Rainwise IP-100,2013-04-08 03:48:00,
2013-04-07 23:53:00,42.7,39.0,29.98,SW,225,11.4,21.0,84,0.00,,,0.04,Rainwise IP-100,2013-04-08 03:53:00,
2013-04-07 23:58:00,42.8,39.0,29.97,WSW,247,18.0,19.1,84,0.00,,,0.04,Rainwise IP-100,2013-04-08 03:58:00,